Location: Fauquembergues
(50.6005°N, 2.0987°E)
Time: 07:02:22
(UTC+00:00)

Cosmos 2360 - Visible Passes

Search period start: 20 October 2020 00:00
Search period end: 30 October 2020 00:00
Orbit: 845 x 857 km, 70.8° (Epoch: 19 October)

Date Brightness Start Highest point End Pass type
(mag) Time Alt. Az. Time Alt. Az. Time Alt. Az.
20 Oct 6.8 03:03:31 10° N 03:06:38 15° NNE 03:09:46 10° ENE visible
20 Oct 5.4 04:47:03 10° NNW 04:52:32 43° NE 04:57:56 10° ESE visible
21 Oct 6.8 02:51:20 10° N 02:54:28 15° NNE 02:57:35 10° ENE visible
21 Oct 5.3 04:34:53 10° NNW 04:40:21 44° NE 04:45:45 10° ESE visible
22 Oct 6.8 02:39:09 10° N 02:42:18 15° NNE 02:45:25 10° ENE visible
22 Oct 5.3 04:22:42 10° NNW 04:28:10 44° NE 04:33:35 10° ESE visible
23 Oct 6.8 02:26:59 10° N 02:30:07 15° NNE 02:33:14 10° ENE visible
23 Oct 5.3 04:10:32 10° NNW 04:16:00 44° NE 04:21:24 10° ESE visible
24 Oct 6.8 02:15:11 11° N 02:17:56 15° NNE 02:21:04 10° ENE visible
24 Oct 5.3 03:58:21 10° NNW 04:03:49 44° NE 04:09:14 10° ESE visible
24 Oct 4.7 05:42:48 10° NW 05:48:05 40° WSW 05:53:20 10° S visible
24 Oct 6.3 18:56:55 10° SSE 18:57:16 12° SSE 18:57:16 12° SSE visible
25 Oct 6.8 02:03:53 13° N 02:05:46 15° NNE 02:08:53 10° ENE visible
25 Oct 5.3 03:46:10 10° NNW 03:51:38 44° NE 03:57:03 10° ESE visible
25 Oct 4.7 05:30:38 10° NW 05:35:55 40° WSW 05:41:09 10° S visible
25 Oct 5.6 18:44:44 10° SSE 18:47:03 22° SSE 18:47:03 22° SSE visible
25 Oct 6.5 20:28:15 10° SW 20:29:11 15° SW 20:29:11 15° SW visible
26 Oct 6.8 01:52:47 14° NNE 01:53:35 15° NNE 01:56:43 10° ENE visible
26 Oct 5.2 03:34:51 14° NNW 03:39:28 44° NE 03:44:52 10° ESE visible
26 Oct 4.6 05:18:27 10° NW 05:23:44 40° WSW 05:28:58 10° S visible
26 Oct 5.0 18:32:34 10° SSE 18:36:44 31° ESE 18:36:44 31° ESE visible
26 Oct 5.8 20:16:04 10° SW 20:18:51 28° WSW 20:18:51 28° WSW visible
27 Oct 6.8 01:41:52 15° NNE 01:41:52 15° NNE 01:44:32 10° ENE visible
27 Oct 5.2 03:23:57 22° N 03:27:17 44° NE 03:32:42 10° ESE visible
27 Oct 4.6 05:06:16 10° NW 05:11:33 40° WSW 05:16:47 10° S visible
27 Oct 4.8 18:20:23 10° SSE 18:25:24 33° ESE 18:26:14 31° E visible
27 Oct 5.1 20:03:54 10° SW 20:08:20 45° W 20:08:20 45° W visible
28 Oct 7.0 01:31:12 13° NE 01:31:12 13° NE 01:32:22 10° ENE visible
28 Oct 5.2 03:13:18 34° N 03:15:06 44° NE 03:20:31 10° ESE visible
28 Oct 4.6 04:55:24 17° NW 04:59:22 40° WSW 05:04:36 10° S visible
28 Oct 4.8 18:08:12 10° SSE 18:13:14 33° ESE 18:15:32 24° ENE visible
28 Oct 4.9 19:51:43 10° SW 19:57:18 52° NW 19:57:37 52° NW visible
28 Oct 7.1 21:39:26 10° WNW 21:39:42 11° WNW 21:39:42 11° WNW visible
29 Oct 5.2 03:02:50 44° NE 03:02:56 44° NE 03:08:20 10° ESE visible
29 Oct 4.6 04:44:58 28° WNW 04:47:11 40° WSW 04:52:25 10° S visible
29 Oct 4.9 17:56:01 10° SSE 18:01:03 33° ESE 18:04:36 17° NE visible
29 Oct 4.9 19:39:32 10° SW 19:45:08 52° NW 19:46:40 41° N visible
29 Oct 6.9 21:27:16 10° WNW 21:28:44 14° NW 21:28:44 14° NW visible
